GW1821 Weather Reports


Display with metric or nautical units.
time (UTC)temp
F
wind
direction
speed
MPH
gust
MPH
rain 1hr
in
rain 24hr
in
rain mn
in
humidity
%
barometer
mb
20260510095643 39 324 0.0 1.0 0.00 0.02 0.00 88 1014.9
20260510095141 40 324 0.0 0.0 0.00 0.02 0.00 88 1014.7
20260510094633 40 324 0.0 0.0 0.00 0.02 0.00 87 1014.7
20260510094131 40 324 0.0 0.0 0.00 0.02 0.00 85 1014.7
20260510093623 39 324 0.0 0.0 0.00 0.03 0.00 81 1014.6
20260510093109 39 324 0.0 0.0 0.00 0.03 0.00 77 1014.5
20260510092606 40 324 0.0 0.0 0.00 0.03 0.00 77 1014.4
20260510092058 40 324 0.0 0.0 0.00 0.04 0.00 76 1014.4
20260510091559 40 324 0.0 0.0 0.00 0.04 0.00 77 1014.3
20260510091051 40 324 0.0 0.0 0.00 0.04 0.00 77 1014.3
20260510090546 40 324 0.0 3.0 0.00 0.04 0.00 76 1014.3
20260510090033 40 324 0.0 3.0 0.00 0.04 0.00 76 1014.3
20260510085526 40 323 0.0 1.0 0.00 0.04 0.00 78 1014.2
20260510085229 39 323 0.0 1.0 0.00 0.04 0.00 79 1014.0
20260510084739 39 323 0.0 1.0 0.00 0.04 0.00 80 1013.9
20260510084007 39 323 0.0 1.0 0.00 0.04 0.00 80 1013.8
20260510083444 39 323 0.0 0.0 0.00 0.04 0.00 80 1013.8
20260510082940 39 323 0.0 0.0 0.00 0.04 0.00 81 1013.8
20260510082414 38 323 0.0 0.0 0.00 0.04 0.00 81 1013.7
20260510081900 38 323 0.0 0.0 0.00 0.04 0.00 80 1013.6
20260510081401 38 323 0.0 1.0 0.00 0.04 0.00 79 1013.5
20260510080844 38 323 0.0 1.0 0.00 0.04 0.00 79 1012.4
20260510080321 38 323 0.0 0.0 0.00 0.04 0.00 78 1013.4
20260510075822 38 323 0.0 0.0 0.00 0.04 0.00 78 1013.3
20260510075310 39 323 0.0 0.0 0.00 0.04 0.00 77 1013.4
20260510074809 39 323 0.0 0.0 0.00 0.04 0.00 77 1013.3
20260510074309 39 323 0.0 0.0 0.00 0.04 0.00 77 1013.3
20260510073805 39 323 0.0 0.0 0.00 0.04 0.00 76 1013.3
20260510073303 39 323 0.0 0.0 0.00 0.04 0.00 76 1013.3
20260510072753 39 323 0.0 1.0 0.00 0.04 0.00 76 1013.3
20260510072238 40 323 0.0 1.0 0.00 0.04 0.00 75 1013.4
20260510071737 40 323 0.0 0.0 0.00 0.04 0.00 74 1013.3
20260510071222 40 323 0.0 0.0 0.00 0.04 0.00 74 1013.3
20260510070708 40 323 0.0 0.0 0.00 0.04 0.00 74 1013.4
20260510070158 40 323 0.0 0.0 0.00 0.04 0.00 74 1013.3
20260510065647 40 323 0.0 0.0 0.00 0.04 0.00 74 1013.3
20260510065125 40 323 0.0 0.0 0.00 0.04 0.00 74 1013.3
20260510064547 40 323 0.0 0.0 0.00 0.04 0.00 73 1013.3
20260510064034 40 323 0.0 0.0 0.00 0.04 0.00 73 1013.2
20260510063525 41 323 0.0 0.0 0.00 0.04 0.00 72 1013.2
20260510063013 41 323 0.0 0.0 0.00 0.04 0.00 72 1013.2
20260510062511 41 323 0.0 0.0 0.00 0.04 0.00 72 1013.2
20260510061957 41 323 0.0 0.0 0.00 0.04 0.00 72 1013.2
20260510061447 42 323 0.0 0.0 0.00 0.04 0.00 71 1013.2
20260510060934 42 323 0.0 0.0 0.00 0.04 0.00 70 1013.2
20260510060428 42 323 0.0 0.0 0.00 0.04 0.00 69 1013.2
20260510055928 42 323 0.0 0.0 0.00 0.04 0.00 67 1013.1
20260510055420 42 323 0.0 0.0 0.00 0.04 0.00 67 1013.1
20260510054908 42 323 0.0 0.0 0.00 0.04 0.00 66 1013.1
20260510054354 42 323 0.0 0.0 0.00 0.04 0.00 66 1013.1
20260510053846 42 323 0.0 0.0 0.00 0.04 0.00 67 1013.0
20260510053338 42 323 0.0 1.0 0.00 0.04 0.00 65 1013.0
20260510052820 42 323 1.0 2.0 0.00 0.04 0.00 64 1013.0
20260510052317 43 323 1.0 2.0 0.00 0.04 0.00 64 1013.0
20260510051812 43 325 0.0 2.0 0.00 0.04 0.00 64 1013.0
20260510051307 43 325 0.0 0.0 0.00 0.04 0.00 64 1012.9
20260510050802 43 325 0.0 0.0 0.00 0.04 0.00 63 1012.9
20260510050512 44 325 0.0 0.0 0.00 0.04 0.00 63 1012.8
20260510045958 44 325 0.0 0.0 0.00 0.04 0.04 62 1012.8
20260510045233 44 325 0.0 0.0 0.00 0.04 0.04 61 1012.8
20260510044714 45 325 0.0 0.0 0.00 0.04 0.04 60 1012.7
20260510044201 45 325 0.0 0.0 0.00 0.04 0.04 59 1012.7
20260510043658 45 325 0.0 0.0 0.00 0.04 0.04 58 1012.7
20260510043404 46 325 0.0 0.0 0.00 0.04 0.04 58 1012.7
20260510042912 46 325 0.0 0.0 0.00 0.04 0.04 58 1012.6
20260510042357 46 325 0.0 0.0 0.00 0.04 0.04 57 1012.6
20260510041636 47 325 0.0 0.0 0.00 0.04 0.04 56 1012.6
20260510041129 47 325 0.0 0.0 0.00 0.04 0.04 55 1012.6
20260510040624 47 325 0.0 3.0 0.00 0.04 0.04 54 1012.6
20260510040108 47 325 0.0 3.0 0.00 0.04 0.04 53 1012.6
20260510040036 48 325 1.0 3.0 0.00 0.04 0.04 52 1012.6
20260510035045 48 325 1.0 3.0 0.00 0.04 0.04 51 1012.6
20260510034819 48 325 1.0 5.0 0.00 0.04 0.04 51 1012.6
20260510034039 49 327 2.0 5.0 0.00 0.04 0.04 50 1012.5
20260510033534 49 331 2.0 5.0 0.00 0.04 0.04 50 1012.6
20260510033300 49 331 1.0 5.0 0.00 0.04 0.04 49 1012.4
20260510032529 50 331 2.0 5.0 0.00 0.04 0.04 49 1012.4
20260510032028 50 331 2.0 5.0 0.00 0.04 0.04 48 1012.3
20260510031526 50 336 2.0 4.0 0.00 0.04 0.04 48 1012.3
20260510031023 50 339 2.0 4.0 0.00 0.04 0.04 47 1012.2
20260510030514 51 336 2.0 5.0 0.00 0.04 0.04 46 1012.1
20260510030012 51 341 2.0 5.0 0.00 0.04 0.04 46 1012.0
20260510025510 51 336 2.0 6.0 0.00 0.04 0.04 46 1011.9
20260510025011 51 335 2.0 6.0 0.00 0.04 0.04 47 1011.7
20260510024505 52 329 2.0 4.0 0.00 0.04 0.04 44 1011.7
20260510024006 52 324 2.0 4.0 0.00 0.04 0.04 43 1011.5
20260510023504 52 325 2.0 5.0 0.00 0.04 0.04 43 1011.3
20260510023002 53 328 2.0 5.0 0.00 0.04 0.04 43 1011.1
20260510022458 53 327 1.0 5.0 0.00 0.04 0.04 43 1011.0
20260510021952 53 317 1.0 4.0 0.00 0.04 0.04 42 1010.9
20260510021442 54 321 2.0 4.0 0.00 0.04 0.04 42 1010.8
20260510020942 54 321 2.0 4.0 0.00 0.04 0.04 41 1010.7
20260510020443 54 323 2.0 5.0 0.00 0.04 0.04 40 1010.6
20260510020410 55 334 3.0 8.0 0.00 0.04 0.04 40 1010.5
20260510015424 55 322 3.0 11.0 0.00 0.04 0.04 39 1010.4
20260510014924 55 323 3.0 11.0 0.00 0.04 0.04 39 1010.3
20260510014424 56 338 3.0 11.0 0.00 0.04 0.04 38 1010.1
20260510014143 56 298 4.0 11.0 0.00 0.04 0.04 38 1010.1
20260510013419 56 320 4.0 9.0 0.00 0.04 0.04 37 1010.0
20260510013139 56 303 4.0 10.0 0.00 0.04 0.04 38 1009.9
20260510012414 56 313 4.0 10.0 0.00 0.04 0.04 38 1009.8
20260510011915 56 278 4.0 9.0 0.00 0.04 0.04 37 1009.7
20260510011413 57 336 5.0 12.0 0.00 0.04 0.04 37 1009.6
20260510010916 57 310 5.0 13.0 0.00 0.04 0.04 37 1009.5
20260510010410 57 342 5.0 13.0 0.00 0.04 0.04 36 1009.5
20260510005910 58 289 5.0 13.0 0.00 0.04 0.04 36 1009.4
20260510005636 58 285 5.0 13.0 0.00 0.04 0.04 36 1009.3
20260510004911 58 257 5.0 11.0 0.00 0.04 0.04 35 1009.2
20260510004402 58 286 5.0 11.0 0.00 0.04 0.04 35 1009.2
20260510003902 58 343 5.0 14.0 0.00 0.04 0.04 35 1009.2
20260510003402 59 305 5.0 14.0 0.00 0.04 0.04 35 1009.2
20260510002902 59 288 4.0 14.0 0.00 0.04 0.04 35 1009.1
20260510002400 59 329 4.0 12.0 0.00 0.04 0.04 35 1009.0
20260510002117 60 292 5.0 12.0 0.00 0.04 0.04 34 1009.0
20260510001401 60 309 4.0 12.0 0.00 0.04 0.04 34 1008.9
20260510000858 60 322 4.0 13.0 0.00 0.04 0.04 34 1008.8
20260510000616 60 318 4.0 13.0 0.00 0.04 0.04 34 1008.7
20260509235854 61 340 5.0 13.0 0.00 0.04 0.04 34 1008.6
20260509235353 61 323 5.0 13.0 0.00 0.04 0.04 34 1008.6
20260509234849 61 340 5.0 13.0 0.00 0.04 0.04 34 1008.6
20260509234349 61 325 6.0 18.0 0.00 0.04 0.04 34 1008.6
20260509233850 61 312 7.0 18.0 0.00 0.04 0.04 34 1008.5
20260509233350 61 309 7.0 16.0 0.00 0.04 0.04 34 1008.5
20260509232848 61 257 5.0 15.0 0.00 0.04 0.04 35 1008.3
20260509232346 61 300 4.0 17.0 0.00 0.04 0.04 34 1008.3
20260509231842 60 337 5.0 17.0 0.00 0.04 0.04 34 1008.2
20260509231342 60 326 6.0 17.0 0.00 0.04 0.04 34 1008.3
20260509230834 61 242 5.0 17.0 0.00 0.04 0.04 33 1008.3
20260509230334 62 293 5.0 15.0 0.00 0.04 0.04 35 1008.2
20260509230056 62 313 6.0 15.0 0.00 0.04 0.04 34 1008.2
20260509225335 61 30 6.0 15.0 0.00 0.04 0.04 36 1008.2
20260509224829 60 313 5.0 15.0 0.00 0.04 0.04 35 1008.1
20260509224329 61 295 6.0 16.0 0.00 0.04 0.04 33 1008.0
20260509223834 61 288 7.0 16.0 0.00 0.04 0.04 34 1008.0
20260509223329 61 297 6.0 12.0 0.00 0.04 0.04 34 1008.0
20260509222828 61 274 5.0 13.0 0.00 0.04 0.04 35 1008.0
20260509222329 62 290 5.0 13.0 0.00 0.04 0.04 34 1008.0
20260509221826 62 336 4.0 13.0 0.00 0.04 0.04 35 1008.0
20260509221540 62 333 5.0 13.0 0.00 0.04 0.04 36 1007.9
20260509220824 62 19 5.0 14.0 0.00 0.04 0.04 37 1007.9
20260509220321 61 299 5.0 14.0 0.00 0.04 0.04 38 1007.9
20260509215819 61 304 4.0 14.0 0.00 0.04 0.04 39 1007.9
20260509215813 62 292 5.0 14.0 0.00 0.04 0.04 34 1007.8
20260509214815 62 9 6.0 14.0 0.00 0.04 0.04 33 1007.8
20260509214306 62 271 5.0 15.0 0.00 0.04 0.04 35 1007.7
20260509213800 62 24 6.0 15.0 0.00 0.04 0.04 35 1007.7
20260509213530 62 332 7.0 17.0 0.00 0.04 0.04 35 1007.7
20260509212758 61 292 8.0 17.0 0.00 0.04 0.04 33 1007.7
20260509212255 62 311 6.0 16.0 0.00 0.04 0.04 35 1007.4
20260509211754 62 300 6.0 12.0 0.00 0.04 0.04 34 1007.6
20260509211251 62 41 6.0 16.0 0.00 0.04 0.04 34 1007.6
20260509210753 62 305 6.0 16.0 0.00 0.04 0.04 33 1007.4
20260509210254 62 319 6.0 17.0 0.00 0.04 0.04 34 1007.4
20260509205751 62 355 6.0 17.0 0.00 0.04 0.04 39 1007.4
20260509205252 61 10 7.0 19.0 0.00 0.04 0.04 40 1007.3
20260509204743 61 329 8.0 19.0 0.00 0.04 0.04 35 1007.3
20260509204246 61 294 7.0 19.0 0.00 0.04 0.04 32 1007.2
20260509203744 61 277 5.0 16.0 0.00 0.04 0.04 36 1007.3
20260509203240 61 319 6.0 16.0 0.00 0.04 0.04 35 1007.3
20260509202738 61 298 8.0 18.0 0.00 0.04 0.04 35 1007.1
20260509202240 61 278 7.0 18.0 0.00 0.04 0.04 35 1007.3
20260509201738 61 336 5.0 14.0 0.00 0.04 0.04 38 1007.1
20260509201235 61 334 5.0 17.0 0.00 0.04 0.04 37 1007.1
20260509200734 60 292 6.0 19.0 0.00 0.04 0.04 37 1007.0
20260509200236 61 287 7.0 19.0 0.00 0.04 0.04 39 1007.0
20260509195635 60 299 7.0 14.0 0.00 0.04 0.04 40 1006.9
20260509195135 60 304 7.0 19.0 0.00 0.04 0.04 39 1007.0
20260509194636 60 321 9.0 19.0 0.00 0.04 0.04 38 1006.9
20260509194129 60 325 9.0 19.0 0.00 0.04 0.04 38 1007.0
20260509193628 60 329 7.0 19.0 0.00 0.04 0.04 37 1006.8
20260509193130 59 220 7.0 19.0 0.00 0.04 0.04 36 1006.8
20260509192604 60 266 8.0 19.0 0.00 0.04 0.04 37 1006.8
20260509192102 60 297 7.0 19.0 0.00 0.04 0.04 38 1006.7
20260509191557 61 355 7.0 17.0 0.00 0.04 0.04 38 1006.7
20260509191057 60 325 6.0 17.0 0.00 0.04 0.04 40 1006.6
20260509190556 60 286 5.0 15.0 0.00 0.04 0.04 38 1006.6
20260509190051 61 322 7.0 19.0 0.00 0.04 0.04 40 1006.6
20260509185818 60 5 7.0 19.0 0.00 0.04 0.04 40 1006.7
20260509185049 61 290 6.0 13.0 0.00 0.04 0.04 40 1006.5
20260509184544 60 306 6.0 13.0 0.00 0.04 0.04 39 1006.5
20260509184534 60 340 6.0 17.0 0.00 0.04 0.04 41 1006.4
20260509183542 60 326 7.0 19.0 0.00 0.04 0.04 38 1006.5
20260509183041 59 355 8.0 19.0 0.00 0.04 0.04 39 1006.4
20260509182537 59 308 7.0 16.0 0.00 0.04 0.04 42 1006.5
20260509182034 59 296 7.0 14.0 0.00 0.04 0.04 41 1006.4
20260509181533 59 309 7.0 19.0 0.00 0.04 0.04 43 1006.4
20260509181029 59 275 6.0 19.0 0.00 0.04 0.04 40 1006.4
20260509180527 58 307 4.0 13.0 0.00 0.04 0.04 44 1006.4
20260509180023 58 342 4.0 13.0 0.00 0.04 0.04 43 1006.3
20260509175524 58 330 6.0 17.0 0.00 0.04 0.04 47 1006.3
20260509175020 58 337 6.0 17.0 0.00 0.04 0.04 45 1006.4
20260509174521 57 5 6.0 15.0 0.00 0.04 0.04 45 1006.2
20260509174015 57 338 6.0 15.0 0.00 0.04 0.04 44 1006.2
20260509173515 57 299 5.0 19.0 0.00 0.04 0.04 45 1006.1
20260509173013 57 303 5.0 19.0 0.00 0.04 0.04 45 1006.1
20260509172514 57 11 6.0 19.0 0.00 0.04 0.04 44 1006.1
20260509172233 57 296 6.0 19.0 0.00 0.04 0.04 44 1006.1
20260509171510 57 284 6.0 15.0 0.00 0.04 0.04 50 1006.0
20260509171007 57 22 7.0 15.0 0.00 0.04 0.04 46 1005.9
20260509170508 56 346 7.0 16.0 0.00 0.04 0.04 49 1006.0
20260509170008 56 300 6.0 16.0 0.00 0.04 0.04 45 1006.0
20260509165727 56 347 5.0 15.0 0.00 0.04 0.04 48 1005.8
20260509165234 56 288 6.0 15.0 0.00 0.04 0.04 49 1005.9
20260509164503 56 0 6.0 15.0 0.00 0.04 0.04 49 1005.9
20260509164003 56 294 5.0 15.0 0.00 0.04 0.04 51 1005.7
20260509163504 55 306 6.0 15.0 0.00 0.04 0.04 53 1005.7
20260509163001 55 314 6.0 13.0 0.00 0.04 0.04 52 1005.6
20260509162459 55 327 6.0 17.0 0.00 0.04 0.04 52 1005.6
20260509161957 55 333 6.0 17.0 0.00 0.04 0.04 52 1005.6
20260509161456 55 349 6.0 16.0 0.00 0.04 0.04 55 1005.5
20260509161220 56 18 6.0 16.0 0.00 0.04 0.04 53 1005.5
20260509160454 56 304 6.0 16.0 0.00 0.04 0.04 53 1005.4
20260509160209 56 304 6.0 16.0 0.00 0.04 0.04 53 1005.3
20260509155450 56 351 5.0 13.0 0.00 0.04 0.04 56 1005.3
20260509154950 55 348 5.0 17.0 0.00 0.04 0.04 55 1005.2
20260509154449 55 329 6.0 17.0 0.00 0.04 0.04 55 1005.1
20260509153944 55 329 6.0 15.0 0.00 0.04 0.04 57 1005.0
20260509153439 54 5 6.0 15.0 0.00 0.04 0.04 58 1004.9
20260509152936 54 330 6.0 16.0 0.00 0.04 0.04 56 1004.9
20260509152437 55 272 6.0 16.0 0.00 0.04 0.04 60 1004.8
20260509151936 55 355 6.0 15.0 0.00 0.04 0.04 59 1004.7
20260509151434 55 335 5.0 12.0 0.00 0.04 0.04 60 1004.6
20260509150932 54 303 6.0 14.0 0.00 0.04 0.04 65 1004.6
20260509150429 53 300 6.0 14.0 0.00 0.04 0.04 62 1004.4
20260509145927 53 318 6.0 13.0 0.00 0.04 0.04 63 1004.4
20260509145657 53 311 5.0 13.0 0.00 0.04 0.04 64 1004.3
20260509144925 53 327 5.0 12.0 0.00 0.04 0.04 67 1004.2
20260509144425 53 321 5.0 12.0 0.00 0.04 0.04 66 1004.1
20260509143925 53 294 4.0 12.0 0.00 0.04 0.04 68 1004.1
20260509143427 52 305 4.0 13.0 0.00 0.04 0.04 71 1004.1
20260509143146 52 313 5.0 13.0 0.00 0.04 0.04 70 1004.1
20260509142423 52 315 5.0 16.0 0.00 0.04 0.04 69 1004.0
20260509141924 52 308 5.0 16.0 0.00 0.04 0.04 70 1004.0
20260509141421 52 327 5.0 16.0 0.00 0.04 0.04 71 1004.0
20260509140910 51 303 4.0 16.0 0.00 0.04 0.04 72 1003.9
20260509140410 51 17 5.0 15.0 0.00 0.04 0.04 75 1003.9
20260509135912 51 315 6.0 15.0 0.00 0.04 0.04 74 1003.8
20260509135409 51 0 6.0 14.0 0.00 0.04 0.04 76 1003.8
20260509135131 50 298 6.0 15.0 0.00 0.04 0.04 76 1003.6
20260509134407 50 331 4.0 15.0 0.00 0.04 0.04 78 1003.6
20260509133907 50 314 4.0 10.0 0.00 0.04 0.04 80 1003.5
20260509133406 50 323 4.0 11.0 0.00 0.04 0.04 82 1003.5
20260509132907 50 304 3.0 11.0 0.00 0.04 0.04 83 1003.4
20260509132405 49 355 4.0 8.0 0.00 0.04 0.04 84 1003.4
20260509131906 49 36 4.0 10.0 0.00 0.04 0.04 84 1003.2
20260509131407 49 355 3.0 10.0 0.00 0.04 0.04 85 1003.2
20260509130908 49 286 3.0 10.0 0.00 0.04 0.04 85 1003.1
20260509130403 49 306 2.0 10.0 0.00 0.04 0.04 86 1002.9
20260509125903 49 310 2.0 5.0 0.00 0.04 0.04 87 1002.8
20260509125403 49 309 3.0 8.0 0.00 0.04 0.04 87 1002.8
20260509124901 49 330 3.0 8.0 0.00 0.04 0.04 87 1002.8
20260509124355 49 319 3.0 10.0 0.00 0.04 0.04 87 1002.7
20260509123849 49 355 3.0 10.0 0.00 0.04 0.04 88 1002.8
20260509123348 49 293 3.0 8.0 0.00 0.04 0.04 88 1002.6
20260509122845 48 304 3.0 8.0 0.00 0.04 0.04 88 1002.5
20260509122345 49 291 2.0 8.0 0.00 0.04 0.04 89 1002.4
20260509121845 48 336 2.0 8.0 0.00 0.04 0.04 89 1002.3
20260509121339 48 334 3.0 8.0 0.00 0.04 0.04 89 1002.4
20260509121057 48 346 3.0 8.0 0.00 0.04 0.04 89 1002.3
20260509120334 48 311 3.0 8.0 0.00 0.04 0.04 90 1002.2
20260509120049 48 313 3.0 7.0 0.00 0.04 0.04 90 1002.1
20260509115329 48 306 2.0 7.0 0.00 0.04 0.04 90 1001.9
20260509114831 48 250 2.0 6.0 0.00 0.04 0.04 91 1001.8
20260509114326 48 281 1.0 6.0 0.00 0.04 0.04 90 1001.8
20260509113822 48 315 1.0 3.0 0.00 0.04 0.04 90 1001.7
20260509113323 48 319 0.0 3.0 0.00 0.04 0.04 90 1001.6
20260509113048 48 319 0.0 3.0 0.00 0.04 0.04 90 1001.5
20260509112753 48 319 1.0 3.0 0.01 0.04 0.04 90 1001.3
20260509112037 48 319 1.0 3.0 0.01 0.04 0.04 90 1001.3
20260509111321 48 319 0.0 3.0 0.02 0.04 0.04 89 1001.1
20260509110808 48 319 0.0 2.0 0.02 0.04 0.04 89 1000.9
20260509110306 48 319 0.0 2.0 0.02 0.04 0.04 89 1000.8
20260509105804 48 319 0.0 2.0 0.02 0.04 0.04 89 1000.7
20260509105257 48 319 0.0 2.0 0.02 0.04 0.04 89 1000.7
20260509104753 48 319 1.0 3.0 0.02 0.04 0.04 89 1000.6
20260509104254 48 319 1.0 4.0 0.02 0.04 0.04 89 1000.6
20260509103749 48 319 1.0 4.0 0.03 0.04 0.04 88 1000.6
20260509103505 48 314 1.0 2.0 0.03 0.04 0.04 88 1000.4
20260509102745 49 314 0.0 1.0 0.03 0.04 0.04 87 1000.3
20260509102216 49 314 0.0 2.0 0.03 0.03 0.03 87 1000.4
20260509102144 49 314 0.0 2.0 0.03 0.03 0.03 86 1000.3
20260509101155 49 314 0.0 1.0 0.02 0.02 0.02 86 1000.1
20260509100648 49 314 0.0 1.0 0.02 0.02 0.02 85 1000.4
20260509100142 49 314 0.0 3.0 0.02 0.02 0.02 85 1000.3